Time,TemperatureF,DewpointF,PressureIn,WindDirection,WindDirectionDegrees,WindSpeedMPH,WindSpeedGustMPH,Humidity,HourlyPrecipIn,Conditions,Clouds,dailyrainin,SoftwareType,DateUTC
2013-07-06 00:00:00,83.1,57.0,29.53,WNW,289,3.0,5.0,41,0.00,,,0.00,Wunderground v.1.15,2013-07-06 07:00:00,
2013-07-06 00:05:00,83.1,57.6,29.54,WNW,294,4.0,5.0,42,0.00,,,0.00,Wunderground v.1.15,2013-07-06 07:05:00,
2013-07-06 00:10:00,83.3,57.8,29.53,SW,233,3.0,4.0,42,0.00,,,0.00,Wunderground v.1.15,2013-07-06 07:10:00,
2013-07-06 00:20:00,83.5,58.0,29.54,WSW,255,2.0,2.0,42,0.00,,,0.00,Wunderground v.1.15,2013-07-06 07:20:00,
2013-07-06 00:25:00,83.3,57.8,29.54,WSW,248,1.0,2.0,42,0.00,,,0.00,Wunderground v.1.15,2013-07-06 07:25:00,
2013-07-06 00:30:00,83.0,58.2,29.54,West,280,1.0,2.0,43,0.00,,,0.00,Wunderground v.1.15,2013-07-06 07:30:00,
2013-07-06 00:35:00,83.0,57.5,29.53,WNW,290,2.0,2.0,42,0.00,,,0.00,Wunderground v.1.15,2013-07-06 07:35:00,
2013-07-06 00:45:00,82.8,58.0,29.54,West,280,2.0,3.0,43,0.00,,,0.00,Wunderground v.1.15,2013-07-06 07:45:00,
2013-07-06 00:50:00,83.0,57.5,29.53,WNW,288,3.0,5.0,42,0.00,,,0.00,Wunderground v.1.15,2013-07-06 07:50:00,
2013-07-06 00:55:00,82.9,57.5,29.53,WNW,298,4.0,6.0,42,0.00,,,0.00,Wunderground v.1.15,2013-07-06 07:55:00,
2013-07-06 01:00:00,82.7,56.6,29.53,West,273,4.0,4.0,41,0.00,,,0.00,Wunderground v.1.15,2013-07-06 08:00:00,
2013-07-06 01:05:00,82.9,56.8,29.54,West,273,3.0,4.0,41,0.00,,,0.00,Wunderground v.1.15,2013-07-06 08:05:00,
2013-07-06 01:15:00,82.9,56.8,29.53,WSW,247,2.0,2.0,41,0.00,,,0.00,Wunderground v.1.15,2013-07-06 08:15:00,
2013-07-06 01:20:00,81.7,59.5,29.54,SSW,193,2.0,2.0,47,0.00,,,0.00,Wunderground v.1.15,2013-07-06 08:20:00,
2013-07-06 01:25:00,79.2,62.1,29.54,SW,233,2.0,2.0,56,0.00,,,0.00,Wunderground v.1.15,2013-07-06 08:25:00,
2013-07-06 01:30:00,77.9,62.4,29.54,SW,226,2.0,2.0,59,0.00,,,0.00,Wunderground v.1.15,2013-07-06 08:30:00,
2013-07-06 01:40:00,77.1,63.1,29.54,WSW,252,2.0,2.0,62,0.00,,,0.00,Wunderground v.1.15,2013-07-06 08:40:00,
2013-07-06 01:45:00,77.0,63.0,29.53,West,264,1.0,2.0,62,0.00,,,0.00,Wunderground v.1.15,2013-07-06 08:45:00,
2013-07-06 01:50:00,77.0,63.0,29.53,SSW,197,1.0,2.0,62,0.00,,,0.00,Wunderground v.1.15,2013-07-06 08:50:00,
2013-07-06 01:55:00,76.7,63.2,29.53,SSW,201,1.0,2.0,63,0.00,,,0.00,Wunderground v.1.15,2013-07-06 08:55:00,
2013-07-06 02:00:00,76.4,63.3,29.53,SSW,205,1.0,1.0,64,0.00,,,0.00,Wunderground v.1.15,2013-07-06 09:00:00,
2013-07-06 02:10:00,76.3,63.2,29.53,WNW,290,1.0,3.0,64,0.00,,,0.00,Wunderground v.1.15,2013-07-06 09:10:00,
2013-07-06 02:15:00,76.6,61.7,29.53,NNW,335,2.0,3.0,60,0.00,,,0.00,Wunderground v.1.15,2013-07-06 09:15:00,
2013-07-06 02:20:00,77.4,61.5,29.52,WNW,293,3.0,4.0,58,0.00,,,0.00,Wunderground v.1.15,2013-07-06 09:20:00,
2013-07-06 02:30:00,78.8,60.7,29.52,NW,315,5.0,5.0,54,0.00,,,0.00,Wunderground v.1.15,2013-07-06 09:30:00,
2013-07-06 02:35:00,79.5,59.8,29.52,WNW,293,6.0,8.0,51,0.00,,,0.00,Wunderground v.1.15,2013-07-06 09:35:00,
2013-07-06 02:40:00,80.1,58.6,29.52,NW,326,5.0,5.0,48,0.00,,,0.00,Wunderground v.1.15,2013-07-06 09:40:00,
2013-07-06 02:45:00,80.6,57.3,29.52,WNW,288,4.0,5.0,45,0.00,,,0.00,Wunderground v.1.15,2013-07-06 09:45:00,
2013-07-06 02:50:00,81.1,57.7,29.52,NW,316,5.0,5.0,45,0.00,,,0.00,Wunderground v.1.15,2013-07-06 09:50:00,
2013-07-06 03:00:00,81.3,56.7,29.52,NW,309,6.0,6.0,43,0.00,,,0.00,Wunderground v.1.15,2013-07-06 10:00:00,
2013-07-06 03:05:00,81.2,56.6,29.52,NW,306,5.0,6.0,43,0.00,,,0.00,Wunderground v.1.15,2013-07-06 10:05:00,
2013-07-06 03:10:00,81.7,56.4,29.52,NW,304,5.0,6.0,42,0.00,,,0.00,Wunderground v.1.15,2013-07-06 10:10:00,
2013-07-06 03:20:00,82.1,56.1,29.52,WNW,297,5.0,6.0,41,0.00,,,0.00,Wunderground v.1.15,2013-07-06 10:20:00,
2013-07-06 03:25:00,82.0,56.0,29.52,NW,307,5.0,6.0,41,0.00,,,0.00,Wunderground v.1.15,2013-07-06 10:25:00,
2013-07-06 03:30:00,81.8,55.8,29.52,NW,315,5.0,5.0,41,0.00,,,0.00,Wunderground v.1.15,2013-07-06 10:30:00,
2013-07-06 03:35:00,81.7,55.7,29.52,WNW,301,5.0,5.0,41,0.00,,,0.00,Wunderground v.1.15,2013-07-06 10:35:00,
2013-07-06 03:45:00,81.5,55.5,29.52,WNW,294,5.0,5.0,41,0.00,,,0.00,Wunderground v.1.15,2013-07-06 10:45:00,
2013-07-06 03:50:00,81.8,55.8,29.52,WNW,295,6.0,6.0,41,0.00,,,0.00,Wunderground v.1.15,2013-07-06 10:50:00,
2013-07-06 03:55:00,81.8,55.1,29.53,WNW,298,6.0,6.0,40,0.00,,,0.00,Wunderground v.1.15,2013-07-06 10:55:00,
2013-07-06 04:00:00,81.4,55.4,29.52,WNW,303,5.0,5.0,41,0.00,,,0.00,Wunderground v.1.15,2013-07-06 11:00:00,
2013-07-06 04:10:00,81.6,56.3,29.52,SSW,203,3.0,3.0,42,0.00,,,0.00,Wunderground v.1.15,2013-07-06 11:10:00,
2013-07-06 04:15:00,81.4,56.8,29.52,WNW,283,2.0,3.0,43,0.00,,,0.00,Wunderground v.1.15,2013-07-06 11:15:00,
2013-07-06 04:20:00,81.3,56.0,29.52,WNW,287,2.0,3.0,42,0.00,,,0.00,Wunderground v.1.15,2013-07-06 11:20:00,
2013-07-06 04:25:00,80.7,56.1,29.52,West,277,2.0,3.0,43,0.00,,,0.00,Wunderground v.1.15,2013-07-06 11:25:00,
2013-07-06 04:30:00,79.9,56.0,29.52,WNW,294,1.0,2.0,44,0.00,,,0.00,Wunderground v.1.15,2013-07-06 11:30:00,
2013-07-06 04:40:00,80.1,56.8,29.52,SSE,167,3.0,3.0,45,0.00,,,0.00,Wunderground v.1.15,2013-07-06 11:40:00,
2013-07-06 04:45:00,78.7,56.2,29.52,East,84,2.0,3.0,46,0.00,,,0.00,Wunderground v.1.15,2013-07-06 11:45:00,
2013-07-06 04:50:00,77.4,58.4,29.53,ESE,102,0.0,0.0,52,0.00,,,0.00,Wunderground v.1.15,2013-07-06 11:50:00,
2013-07-06 05:00:00,75.7,59.4,29.53,East,100,0.0,0.0,57,0.00,,,0.00,Wunderground v.1.15,2013-07-06 12:00:00,
2013-07-06 05:05:00,75.3,60.0,29.53,East,101,0.0,0.0,59,0.00,,,0.00,Wunderground v.1.15,2013-07-06 12:05:00,
2013-07-06 05:10:00,75.1,58.8,29.53,East,101,0.0,0.0,57,0.00,,,0.00,Wunderground v.1.15,2013-07-06 12:10:00,
2013-07-06 05:15:00,75.6,58.3,29.53,NW,304,0.0,0.0,55,0.00,,,0.00,Wunderground v.1.15,2013-07-06 12:15:00,
2013-07-06 05:20:00,77.4,57.9,29.53,WNW,301,1.0,3.0,51,0.00,,,0.00,Wunderground v.1.15,2013-07-06 12:20:00,
2013-07-06 05:30:00,79.0,57.6,29.53,NW,306,3.0,3.0,48,0.00,,,0.00,Wunderground v.1.15,2013-07-06 12:30:00,
2013-07-06 05:35:00,79.4,57.4,29.53,WNW,295,3.0,3.0,47,0.00,,,0.00,Wunderground v.1.15,2013-07-06 12:35:00,
2013-07-06 05:40:00,79.6,58.2,29.54,WNW,301,3.0,3.0,48,0.00,,,0.00,Wunderground v.1.15,2013-07-06 12:40:00,
2013-07-06 05:45:00,79.8,57.8,29.54,West,264,2.0,3.0,47,0.00,,,0.00,Wunderground v.1.15,2013-07-06 12:45:00,
2013-07-06 05:50:00,79.8,57.8,29.54,SSE,163,1.0,2.0,47,0.00,,,0.00,Wunderground v.1.15,2013-07-06 12:50:00,
2013-07-06 06:00:00,80.0,58.0,29.55,West,277,1.0,1.0,47,0.00,,,0.00,Wunderground v.1.15,2013-07-06 13:00:00,
2013-07-06 06:05:00,80.2,58.1,29.55,West,276,0.0,1.0,47,0.00,,,0.00,Wunderground v.1.15,2013-07-06 13:05:00,
2013-07-06 06:15:00,81.6,58.8,29.55,West,276,0.0,0.0,46,0.00,,,0.00,Wunderground v.1.15,2013-07-06 13:15:00,
2013-07-06 06:20:00,82.1,59.3,29.56,West,276,0.0,0.0,46,0.00,,,0.00,Wunderground v.1.15,2013-07-06 13:20:00,
2013-07-06 06:30:00,81.9,60.3,29.56,WSW,240,0.0,0.0,48,0.00,,,0.00,Wunderground v.1.15,2013-07-06 13:30:00,
2013-07-06 06:35:00,81.8,60.2,29.56,WSW,252,0.0,0.0,48,0.00,,,0.00,Wunderground v.1.15,2013-07-06 13:35:00,
2013-07-06 06:40:00,81.8,60.8,29.56,SSW,210,1.0,3.0,49,0.00,,,0.00,Wunderground v.1.15,2013-07-06 13:40:00,
2013-07-06 06:45:00,82.1,61.0,29.56,SSE,152,1.0,3.0,49,0.00,,,0.00,Wunderground v.1.15,2013-07-06 13:45:00,
2013-07-06 06:55:00,82.8,61.1,29.56,West,274,1.0,2.0,48,0.00,,,0.00,Wunderground v.1.15,2013-07-06 13:55:00,
2013-07-06 07:00:00,83.0,60.7,29.56,West,266,1.0,2.0,47,0.00,,,0.00,Wunderground v.1.15,2013-07-06 14:00:00,
2013-07-06 07:05:00,83.6,60.6,29.56,West,276,2.0,2.0,46,0.00,,,0.00,Wunderground v.1.15,2013-07-06 14:05:00,
2013-07-06 07:15:00,83.7,60.7,29.56,SSW,207,2.0,3.0,46,0.00,,,0.00,Wunderground v.1.15,2013-07-06 14:15:00,
2013-07-06 07:20:00,84.1,61.1,29.56,SW,214,2.0,3.0,46,0.00,,,0.00,Wunderground v.1.15,2013-07-06 14:20:00,
2013-07-06 07:25:00,84.4,60.7,29.56,SSW,204,3.0,4.0,45,0.00,,,0.00,Wunderground v.1.15,2013-07-06 14:25:00,
2013-07-06 07:30:00,84.5,60.8,29.56,SW,217,3.0,3.0,45,0.00,,,0.00,Wunderground v.1.15,2013-07-06 14:30:00,
2013-07-06 07:40:00,85.3,60.3,29.57,South,170,4.0,5.0,43,0.00,,,0.00,Wunderground v.1.15,2013-07-06 14:40:00,
2013-07-06 07:45:00,85.6,60.5,29.57,SW,219,4.0,5.0,43,0.00,,,0.00,Wunderground v.1.15,2013-07-06 14:45:00,
2013-07-06 07:50:00,85.9,60.8,29.57,SSE,159,4.0,4.0,43,0.00,,,0.00,Wunderground v.1.15,2013-07-06 14:50:00,
2013-07-06 07:55:00,86.5,60.7,29.57,SSE,167,3.0,4.0,42,0.00,,,0.00,Wunderground v.1.15,2013-07-06 14:55:00,
2013-07-06 08:00:00,86.4,60.6,29.57,South,184,4.0,4.0,42,0.00,,,0.00,Wunderground v.1.15,2013-07-06 15:00:00,
2013-07-06 08:10:00,86.9,60.4,29.57,SE,133,4.0,5.0,41,0.00,,,0.00,Wunderground v.1.15,2013-07-06 15:10:00,
2013-07-06 08:15:00,86.9,60.4,29.57,SSE,163,5.0,6.0,41,0.00,,,0.00,Wunderground v.1.15,2013-07-06 15:15:00,
2013-07-06 08:20:00,87.0,60.5,29.57,SSE,147,5.0,5.0,41,0.00,,,0.00,Wunderground v.1.15,2013-07-06 15:20:00,
2013-07-06 08:30:00,87.3,60.7,29.57,West,279,4.0,4.0,41,0.00,,,0.00,Wunderground v.1.15,2013-07-06 15:30:00,
2013-07-06 08:35:00,87.1,60.5,29.57,SW,214,4.0,4.0,41,0.00,,,0.00,Wunderground v.1.15,2013-07-06 15:35:00,
2013-07-06 08:40:00,87.9,60.6,29.57,SE,142,3.0,3.0,40,0.00,,,0.00,Wunderground v.1.15,2013-07-06 15:40:00,
2013-07-06 08:45:00,88.2,60.8,29.57,SSE,160,3.0,5.0,40,0.00,,,0.00,Wunderground v.1.15,2013-07-06 15:45:00,
2013-07-06 08:55:00,88.5,61.1,29.57,SSW,198,5.0,6.0,40,0.00,,,0.00,Wunderground v.1.15,2013-07-06 15:55:00,
2013-07-06 09:00:00,88.8,61.4,29.57,SE,124,5.0,7.0,40,0.00,,,0.00,Wunderground v.1.15,2013-07-06 16:00:00,
2013-07-06 09:05:00,88.4,61.0,29.57,SSW,211,6.0,7.0,40,0.00,,,0.00,Wunderground v.1.15,2013-07-06 16:05:00,
2013-07-06 09:20:00,89.3,61.1,29.57,SW,226,5.0,5.0,39,0.00,,,0.00,Wunderground v.1.15,2013-07-06 16:20:00,
2013-07-06 09:25:00,89.2,61.0,29.56,SW,217,5.0,7.0,39,0.00,,,0.00,Wunderground v.1.15,2013-07-06 16:25:00,
2013-07-06 09:30:00,89.2,61.0,29.56,SSE,159,5.0,7.0,39,0.00,,,0.00,Wunderground v.1.15,2013-07-06 16:30:00,
2013-07-06 09:35:00,89.7,61.5,29.56,SSW,198,6.0,12.0,39,0.00,,,0.00,Wunderground v.1.15,2013-07-06 16:35:00,
2013-07-06 09:45:00,90.5,61.4,29.56,SSW,203,6.0,6.0,38,0.00,,,0.00,Wunderground v.1.15,2013-07-06 16:45:00,
2013-07-06 10:00:00,90.4,61.3,29.56,WSW,242,8.0,8.0,38,0.00,,,0.00,Wunderground v.1.15,2013-07-06 17:00:00,
2013-07-06 10:10:00,90.8,60.9,29.56,SSW,211,6.0,6.0,37,0.00,,,0.00,Wunderground v.1.15,2013-07-06 17:10:00,
2013-07-06 10:20:00,91.4,60.7,29.56,South,185,5.0,5.0,36,0.00,,,0.00,Wunderground v.1.15,2013-07-06 17:20:00,
2013-07-06 10:30:00,91.6,60.9,29.56,SW,217,5.0,8.0,36,0.00,,,0.00,Wunderground v.1.15,2013-07-06 17:30:00,
2013-07-06 10:45:00,93.0,61.3,29.56,SW,233,5.0,7.0,35,0.00,,,0.00,Wunderground v.1.15,2013-07-06 17:45:00,
2013-07-06 11:05:00,93.1,60.6,29.55,South,190,6.0,6.0,34,0.00,,,0.00,Wunderground v.1.15,2013-07-06 18:05:00,
2013-07-06 11:10:00,93.6,60.2,29.55,South,173,5.0,5.0,33,0.00,,,0.00,Wunderground v.1.15,2013-07-06 18:10:00,
2013-07-06 11:25:00,94.3,59.9,29.55,SSW,207,6.0,10.0,32,0.00,,,0.00,Wunderground v.1.15,2013-07-06 18:25:00,
2013-07-06 11:40:00,95.5,60.1,29.54,WSW,257,6.0,6.0,31,0.00,,,0.00,Wunderground v.1.15,2013-07-06 18:40:00,
2013-07-06 11:50:00,95.1,60.6,29.54,SE,124,6.0,6.0,32,0.00,,,0.00,Wunderground v.1.15,2013-07-06 18:50:00,
2013-07-06 12:00:00,96.2,60.7,29.53,SE,144,5.0,10.0,31,0.00,,,0.00,Wunderground v.1.15,2013-07-06 19:00:00,
2013-07-06 12:05:00,96.3,60.7,29.53,SSE,155,5.0,10.0,31,0.00,,,0.00,Wunderground v.1.15,2013-07-06 19:05:00,
2013-07-06 12:20:00,96.2,60.7,29.53,NE,53,5.0,5.0,31,0.00,,,0.00,Wunderground v.1.15,2013-07-06 19:20:00,
2013-07-06 12:30:00,96.4,59.9,29.52,West,263,3.0,3.0,30,0.00,,,0.00,Wunderground v.1.15,2013-07-06 19:30:00,
2013-07-06 12:45:00,96.8,60.3,29.51,West,263,6.0,6.0,30,0.00,,,0.00,Wunderground v.1.15,2013-07-06 19:45:00,
2013-07-06 12:50:00,96.9,60.3,29.51,WSW,245,5.0,5.0,30,0.00,,,0.00,Wunderground v.1.15,2013-07-06 19:50:00,
2013-07-06 13:00:00,96.6,60.1,29.50,East,89,4.0,4.0,30,0.00,,,0.00,Wunderground v.1.15,2013-07-06 20:00:00,
2013-07-06 13:05:00,97.1,58.6,29.50,West,260,3.0,4.0,28,0.00,,,0.00,Wunderground v.1.15,2013-07-06 20:05:00,
2013-07-06 13:10:00,97.6,60.0,29.50,SW,233,5.0,9.0,29,0.00,,,0.00,Wunderground v.1.15,2013-07-06 20:10:00,
2013-07-06 13:20:00,97.7,59.1,29.49,WSW,257,7.0,11.0,28,0.00,,,0.00,Wunderground v.1.15,2013-07-06 20:20:00,
2013-07-06 13:30:00,97.3,58.7,29.49,SW,236,7.0,10.0,28,0.00,,,0.00,Wunderground v.1.15,2013-07-06 20:30:00,
2013-07-06 13:40:00,97.7,59.1,29.49,SSW,203,9.0,9.0,28,0.00,,,0.00,Wunderground v.1.15,2013-07-06 20:40:00,
2013-07-06 13:45:00,97.3,57.7,29.49,SSW,212,8.0,9.0,27,0.00,,,0.00,Wunderground v.1.15,2013-07-06 20:45:00,
2013-07-06 14:05:00,98.4,57.6,29.48,SW,219,9.0,14.0,26,0.00,,,0.00,Wunderground v.1.15,2013-07-06 21:05:00,
2013-07-06 14:10:00,98.6,57.8,29.48,ESE,119,7.0,7.0,26,0.00,,,0.00,Wunderground v.1.15,2013-07-06 21:10:00,
2013-07-06 14:30:00,99.3,57.3,29.47,WNW,301,3.0,3.0,25,0.00,,,0.00,Wunderground v.1.15,2013-07-06 21:30:00,
2013-07-06 14:35:00,98.9,56.9,29.47,SSW,201,5.0,5.0,25,0.00,,,0.00,Wunderground v.1.15,2013-07-06 21:35:00,
2013-07-06 14:40:00,98.9,56.9,29.46,ESE,114,6.0,6.0,25,0.00,,,0.00,Wunderground v.1.15,2013-07-06 21:40:00,
2013-07-06 14:55:00,100.2,55.7,29.45,SSE,152,5.0,6.0,23,0.00,,,0.00,Wunderground v.1.15,2013-07-06 21:55:00,
2013-07-06 15:00:00,99.8,56.6,29.45,SE,138,6.0,9.0,24,0.00,,,0.00,Wunderground v.1.15,2013-07-06 22:00:00,
2013-07-06 15:15:00,98.3,56.4,29.45,West,264,8.0,8.0,25,0.00,,,0.00,Wunderground v.1.15,2013-07-06 22:15:00,
2013-07-06 15:20:00,98.4,55.4,29.45,SSE,160,9.0,9.0,24,0.00,,,0.00,Wunderground v.1.15,2013-07-06 22:20:00,
2013-07-06 15:25:00,98.7,55.6,29.45,SSW,203,7.0,9.0,24,0.00,,,0.00,Wunderground v.1.15,2013-07-06 22:25:00,
2013-07-06 15:40:00,98.3,56.4,29.44,WSW,248,7.0,12.0,25,0.00,,,0.00,Wunderground v.1.15,2013-07-06 22:40:00,
2013-07-06 15:45:00,98.1,56.3,29.44,WNW,282,7.0,12.0,25,0.00,,,0.00,Wunderground v.1.15,2013-07-06 22:45:00,
2013-07-06 15:50:00,98.7,56.8,29.43,NNW,329,5.0,6.0,25,0.00,,,0.00,Wunderground v.1.15,2013-07-06 22:50:00,
2013-07-06 16:00:00,99.5,55.1,29.43,SSW,200,6.0,6.0,23,0.00,,,0.00,Wunderground v.1.15,2013-07-06 23:00:00,
2013-07-06 16:05:00,99.6,56.4,29.43,WSW,238,5.0,8.0,24,0.00,,,0.00,Wunderground v.1.15,2013-07-06 23:05:00,
2013-07-06 16:15:00,98.6,55.6,29.43,SSW,203,7.0,7.0,24,0.00,,,0.00,Wunderground v.1.15,2013-07-06 23:15:00,
2013-07-06 16:20:00,98.2,56.4,29.43,WNW,298,6.0,6.0,25,0.00,,,0.00,Wunderground v.1.15,2013-07-06 23:20:00,
2013-07-06 16:25:00,97.7,55.9,29.43,WNW,295,6.0,6.0,25,0.00,,,0.00,Wunderground v.1.15,2013-07-06 23:25:00,
2013-07-06 16:30:00,97.0,57.5,29.41,SW,225,5.0,-999.0,27,0.00,,,0.00,Wunderground v.1.15,2013-07-06 23:30:00,
2013-07-06 16:35:00,98.0,56.2,29.42,ESE,111,3.0,5.0,25,0.00,,,0.00,Wunderground v.1.15,2013-07-06 23:35:00,
2013-07-06 16:40:00,96.8,57.3,29.42,WSW,248,6.0,-999.0,27,0.00,,,0.00,Wunderground v.1.15,2013-07-06 23:40:00,
2013-07-06 16:45:00,96.6,57.1,29.42,SW,225,5.0,-999.0,27,0.00,,,0.00,Wunderground v.1.15,2013-07-06 23:45:00,
2013-07-06 16:50:00,96.6,57.1,29.42,SW,225,5.0,-999.0,27,0.00,,,0.00,Wunderground v.1.15,2013-07-06 23:50:00,
2013-07-06 16:55:00,96.6,56.1,29.42,WSW,248,4.0,-999.0,26,0.00,,,0.00,Wunderground v.1.15,2013-07-06 23:55:00,
2013-07-06 17:00:00,97.5,56.9,29.42,NW,307,3.0,3.0,26,0.00,,,0.00,Wunderground v.1.15,2013-07-07 00:00:00,
2013-07-06 17:05:00,97.2,56.6,29.42,SSW,205,6.0,7.0,26,0.00,,,0.00,Wunderground v.1.15,2013-07-07 00:05:00,
2013-07-06 17:10:00,96.6,56.1,29.43,WSW,248,4.0,-999.0,26,0.00,,,0.00,Wunderground v.1.15,2013-07-07 00:10:00,
2013-07-06 17:15:00,97.2,56.6,29.43,West,270,3.0,-999.0,26,0.00,,,0.00,Wunderground v.1.15,2013-07-07 00:15:00,
2013-07-06 17:20:00,97.2,56.6,29.43,West,270,3.0,-999.0,26,0.00,,,0.00,Wunderground v.1.15,2013-07-07 00:20:00,
2013-07-06 17:25:00,97.0,56.4,29.42,West,270,3.0,-999.0,26,0.00,,,0.00,Wunderground v.1.15,2013-07-07 00:25:00,
2013-07-06 17:30:00,97.0,56.4,29.42,West,270,3.0,-999.0,26,0.00,,,0.00,Wunderground v.1.15,2013-07-07 00:30:00,
2013-07-06 17:35:00,96.8,57.3,29.42,WSW,248,6.0,12.0,27,0.00,,,0.00,Wunderground v.1.15,2013-07-07 00:35:00,
2013-07-06 17:40:00,96.9,56.3,29.43,NNW,338,3.0,-999.0,26,0.00,,,0.00,Wunderground v.1.15,2013-07-07 00:40:00,
2013-07-06 17:45:00,96.6,57.1,29.42,WSW,245,4.0,5.0,27,0.00,,,0.00,Wunderground v.1.15,2013-07-07 00:45:00,
2013-07-06 17:50:00,97.0,56.4,29.43,WNW,293,2.0,-999.0,26,0.00,,,0.00,Wunderground v.1.15,2013-07-07 00:50:00,
2013-07-06 17:55:00,96.8,56.3,29.43,NNW,338,2.0,-999.0,26,0.00,,,0.00,Wunderground v.1.15,2013-07-07 00:55:00,
2013-07-06 18:00:00,96.8,56.3,29.43,NNW,338,2.0,-999.0,26,0.00,,,0.00,Wunderground v.1.15,2013-07-07 01:00:00,
2013-07-06 18:05:00,96.8,56.3,29.43,NNW,338,3.0,-999.0,26,0.00,,,0.00,Wunderground v.1.15,2013-07-07 01:05:00,
2013-07-06 18:10:00,96.8,56.3,29.43,NNW,338,3.0,-999.0,26,0.00,,,0.00,Wunderground v.1.15,2013-07-07 01:10:00,
2013-07-06 18:15:00,96.4,55.9,29.43,North,0,1.0,-999.0,26,0.00,,,0.00,Wunderground v.1.15,2013-07-07 01:15:00,
2013-07-06 18:20:00,97.0,56.4,29.42,SSW,207,4.0,4.0,26,0.00,,,0.00,Wunderground v.1.15,2013-07-07 01:20:00,
2013-07-06 18:25:00,96.2,55.8,29.43,WNW,293,1.0,-999.0,26,0.00,,,0.00,Wunderground v.1.15,2013-07-07 01:25:00,
2013-07-06 18:30:00,96.9,56.3,29.43,North,8,3.0,3.0,26,0.00,,,0.00,Wunderground v.1.15,2013-07-07 01:30:00,
2013-07-06 18:35:00,97.0,56.4,29.43,North,360,3.0,3.0,26,0.00,,,0.00,Wunderground v.1.15,2013-07-07 01:35:00,
2013-07-06 18:40:00,96.0,55.6,29.43,WNW,293,2.0,-999.0,26,0.00,,,0.00,Wunderground v.1.15,2013-07-07 01:40:00,
2013-07-06 18:45:00,95.7,56.4,29.43,WNW,293,3.0,-999.0,27,0.00,,,0.00,Wunderground v.1.15,2013-07-07 01:45:00,
2013-07-06 18:50:00,96.8,56.3,29.43,NNE,12,2.0,3.0,26,0.00,,,0.00,Wunderground v.1.15,2013-07-07 01:50:00,
2013-07-06 18:55:00,96.9,56.3,29.44,NW,308,2.0,3.0,26,0.00,,,0.00,Wunderground v.1.15,2013-07-07 01:55:00,
2013-07-06 19:00:00,96.8,56.3,29.43,NNW,332,3.0,3.0,26,0.00,,,0.00,Wunderground v.1.15,2013-07-07 02:00:00,
2013-07-06 19:05:00,96.6,56.1,29.43,West,266,2.0,3.0,26,0.00,,,0.00,Wunderground v.1.15,2013-07-07 02:05:00,
2013-07-06 19:10:00,95.5,56.2,29.44,NW,315,2.0,-999.0,27,0.00,,,0.00,Wunderground v.1.15,2013-07-07 02:10:00,
2013-07-06 19:15:00,96.2,55.8,29.43,NW,326,0.0,1.0,26,0.00,,,0.00,Wunderground v.1.15,2013-07-07 02:15:00,
2013-07-06 19:20:00,94.8,58.5,29.45,West,270,4.0,-999.0,30,0.00,,,0.00,Wunderground v.1.15,2013-07-07 02:20:00,
2013-07-06 19:25:00,96.1,55.7,29.43,NNW,330,2.0,3.0,26,0.00,,,0.00,Wunderground v.1.15,2013-07-07 02:25:00,
2013-07-06 19:30:00,91.0,57.9,29.45,West,270,8.0,-999.0,33,0.00,,,0.00,Wunderground v.1.15,2013-07-07 02:30:00,
2013-07-06 19:35:00,88.8,59.2,29.46,NNW,338,9.0,-999.0,37,0.00,,,0.00,Wunderground v.1.15,2013-07-07 02:35:00,
2013-07-06 19:40:00,88.8,59.2,29.46,NNW,338,9.0,-999.0,37,0.00,,,0.00,Wunderground v.1.15,2013-07-07 02:40:00,
2013-07-06 19:45:00,87.4,60.1,29.47,NNW,338,14.0,-999.0,40,0.00,,,0.00,Wunderground v.1.15,2013-07-07 02:45:00,
2013-07-06 19:50:00,95.5,56.2,29.43,WNW,284,2.0,3.0,27,0.00,,,0.00,Wunderground v.1.15,2013-07-07 02:50:00,
2013-07-06 19:55:00,86.9,59.7,29.47,NW,315,15.0,-999.0,40,0.00,,,0.00,Wunderground v.1.15,2013-07-07 02:55:00,
2013-07-06 20:00:00,86.9,59.7,29.47,NW,315,15.0,-999.0,40,0.00,,,0.00,Wunderground v.1.15,2013-07-07 03:00:00,
2013-07-06 20:05:00,87.5,58.8,29.48,NW,315,13.0,-999.0,38,0.00,,,0.00,Wunderground v.1.15,2013-07-07 03:05:00,
2013-07-06 20:10:00,94.8,58.5,29.45,WNW,294,3.0,11.0,30,0.00,,,0.00,Wunderground v.1.15,2013-07-07 03:10:00,
2013-07-06 20:15:00,91.9,58.7,29.45,SW,219,8.0,11.0,33,0.00,,,0.00,Wunderground v.1.15,2013-07-07 03:15:00,
2013-07-06 20:20:00,88.5,58.9,29.49,NW,315,10.0,-999.0,37,0.00,,,0.00,Wunderground v.1.15,2013-07-07 03:20:00,
2013-07-06 20:25:00,90.0,58.7,29.50,NW,315,6.0,-999.0,35,0.00,,,0.00,Wunderground v.1.15,2013-07-07 03:25:00,
2013-07-06 20:30:00,88.8,59.2,29.46,NW,326,9.0,11.0,37,0.00,,,0.00,Wunderground v.1.15,2013-07-07 03:30:00,
2013-07-06 20:35:00,88.0,59.2,29.46,NW,318,12.0,12.0,38,0.00,,,0.00,Wunderground v.1.15,2013-07-07 03:35:00,
2013-07-06 20:40:00,87.4,60.1,29.47,NW,304,14.0,14.0,40,0.00,,,0.00,Wunderground v.1.15,2013-07-07 03:40:00,
2013-07-06 20:45:00,87.0,59.8,29.47,NW,326,14.0,14.0,40,0.00,,,0.00,Wunderground v.1.15,2013-07-07 03:45:00,
2013-07-06 20:50:00,83.1,62.5,29.51,NW,315,16.0,-999.0,50,0.00,,,0.00,Wunderground v.1.15,2013-07-07 03:50:00,
2013-07-06 20:55:00,87.2,59.2,29.47,NNW,332,15.0,17.0,39,0.00,,,0.00,Wunderground v.1.15,2013-07-07 03:55:00,
2013-07-06 21:00:00,82.7,62.7,29.51,NW,315,21.0,-999.0,51,0.00,,,0.00,Wunderground v.1.15,2013-07-07 04:00:00,
2013-07-06 21:05:00,87.9,58.4,29.48,NW,311,12.0,13.0,37,0.00,,,0.00,Wunderground v.1.15,2013-07-07 04:05:00,
2013-07-06 21:10:00,88.6,59.0,29.49,NNW,333,10.0,10.0,37,0.00,,,0.00,Wunderground v.1.15,2013-07-07 04:10:00,
2013-07-06 21:15:00,89.5,58.2,29.49,NW,306,8.0,10.0,35,0.00,,,0.00,Wunderground v.1.15,2013-07-07 04:15:00,
2013-07-06 21:20:00,90.0,58.7,29.50,WNW,285,6.0,6.0,35,0.00,,,0.00,Wunderground v.1.15,2013-07-07 04:20:00,
2013-07-06 21:25:00,90.3,59.7,29.50,NW,323,6.0,23.0,36,0.00,,,0.00,Wunderground v.1.15,2013-07-07 04:25:00,
2013-07-06 21:30:00,86.5,62.6,29.52,NNW,346,9.0,29.0,45,0.00,,,0.00,Wunderground v.1.15,2013-07-07 04:30:00,
2013-07-06 21:35:00,83.9,62.7,29.52,North,355,15.0,29.0,49,0.00,,,0.00,Wunderground v.1.15,2013-07-07 04:35:00,
2013-07-06 21:40:00,83.0,60.1,29.51,NW,315,15.0,-999.0,46,0.00,,,0.00,Wunderground v.1.15,2013-07-07 04:40:00,
2013-07-06 21:45:00,82.6,62.6,29.50,NNW,338,18.0,18.0,51,0.00,,,0.00,Wunderground v.1.15,2013-07-07 04:45:00,
2013-07-06 21:50:00,82.7,62.7,29.51,NNW,345,21.0,27.0,51,0.00,,,0.00,Wunderground v.1.15,2013-07-07 04:50:00,
2013-07-06 21:55:00,81.6,62.8,29.51,NW,321,23.0,27.0,53,0.00,,,0.00,Wunderground v.1.15,2013-07-07 04:55:00,
2013-07-06 22:00:00,80.8,63.1,29.51,NW,323,22.0,25.0,55,0.00,,,0.00,Wunderground v.1.15,2013-07-07 05:00:00,
2013-07-06 22:05:00,82.6,60.9,29.51,ENE,68,10.0,-999.0,48,0.00,,,0.00,Wunderground v.1.15,2013-07-07 05:05:00,
2013-07-06 22:10:00,79.8,62.7,29.51,NW,314,21.0,21.0,56,0.00,,,0.00,Wunderground v.1.15,2013-07-07 05:10:00,
2013-07-06 22:15:00,80.7,62.0,29.51,NNW,339,20.0,21.0,53,0.00,,,0.00,Wunderground v.1.15,2013-07-07 05:15:00,
2013-07-06 22:20:00,82.2,61.1,29.50,NW,323,19.0,24.0,49,0.00,,,0.00,Wunderground v.1.15,2013-07-07 05:20:00,
2013-07-06 22:25:00,82.5,60.8,29.51,NW,321,17.0,24.0,48,0.00,,,0.00,Wunderground v.1.15,2013-07-07 05:25:00,
2013-07-06 22:30:00,83.0,60.1,29.51,NW,313,15.0,17.0,46,0.00,,,0.00,Wunderground v.1.15,2013-07-07 05:30:00,
2013-07-06 22:35:00,83.0,60.1,29.51,ENE,68,9.0,-999.0,46,0.00,,,0.00,Wunderground v.1.15,2013-07-07 05:35:00,
2013-07-06 22:40:00,85.8,58.7,29.51,NW,319,12.0,12.0,40,0.00,,,0.00,Wunderground v.1.15,2013-07-07 05:40:00,
2013-07-06 22:45:00,86.3,59.8,29.51,East,79,12.0,12.0,41,0.00,,,0.00,Wunderground v.1.15,2013-07-07 05:45:00,
2013-07-06 22:50:00,84.2,60.6,29.51,ESE,115,11.0,11.0,45,0.00,,,0.00,Wunderground v.1.15,2013-07-07 05:50:00,
2013-07-06 22:55:00,83.9,59.7,29.51,ENE,73,9.0,11.0,44,0.00,,,0.00,Wunderground v.1.15,2013-07-07 05:55:00,
2013-07-06 23:00:00,83.6,59.4,29.50,NNE,23,11.0,-999.0,44,0.00,,,0.00,Wunderground v.1.15,2013-07-07 06:00:00,
2013-07-06 23:05:00,82.2,61.1,29.51,ENE,66,10.0,10.0,49,0.00,,,0.00,Wunderground v.1.15,2013-07-07 06:05:00,
2013-07-06 23:10:00,83.1,60.2,29.51,ENE,59,9.0,13.0,46,0.00,,,0.00,Wunderground v.1.15,2013-07-07 06:10:00,
2013-07-06 23:15:00,83.5,59.3,29.50,NE,45,8.0,-999.0,44,0.00,,,0.00,Wunderground v.1.15,2013-07-07 06:15:00,
2013-07-06 23:20:00,83.0,60.1,29.51,NE,53,12.0,12.0,46,0.00,,,0.00,Wunderground v.1.15,2013-07-07 06:20:00,
2013-07-06 23:25:00,83.0,60.1,29.51,NE,37,10.0,12.0,46,0.00,,,0.00,Wunderground v.1.15,2013-07-07 06:25:00,
2013-07-06 23:30:00,83.0,60.1,29.51,ENE,57,9.0,9.0,46,0.00,,,0.00,Wunderground v.1.15,2013-07-07 06:30:00,
2013-07-06 23:35:00,83.3,60.4,29.50,NE,36,9.0,10.0,46,0.00,,,0.00,Wunderground v.1.15,2013-07-07 06:35:00,
2013-07-06 23:40:00,84.3,58.0,29.49,NNE,23,11.0,-999.0,41,0.00,,,0.00,Wunderground v.1.15,2013-07-07 06:40:00,
2013-07-06 23:45:00,83.5,59.3,29.50,North,10,12.0,17.0,44,0.00,,,0.00,Wunderground v.1.15,2013-07-07 06:45:00,
2013-07-06 23:50:00,83.6,59.4,29.50,North,11,12.0,12.0,44,0.00,,,0.00,Wunderground v.1.15,2013-07-07 06:50:00,
2013-07-06 23:55:00,83.6,59.4,29.50,NNE,25,11.0,12.0,44,0.00,,,0.00,Wunderground v.1.15,2013-07-07 06:55:00,